Regional Weather Roundup
Issued by NWS Spokane, WA

Home | Current Version | Previous Version | Text Only | Print | Product List | Glossary On
Versions: 1 2 3 4 5 6 7 8 9 10 11 12 13 14 15 16 17 18 19 20 21 22 23 24 25 26 27 28 29 30 31 32 33 34 35 36 37 38 39 40 41 42 43 44 45 46 47 48 49 50
000
NZUS01 KOTX 240110
RWROTX
EASTERN WASHINGTON/NORTHERN IDAHO ROUNDUP
NATIONAL WEATHER SERVICE, SPOKANE WA
600 PM PDT WED JUL 23 2014

Note: "fair" indicated few or no clouds below 12,000 feet with no
significant weather and/or obstructions to visibility.

...NORTHEAST WASHINGTON AND NORTHERN IDAHO PANHANDLE...

CITY           SKY/WX    TMP DP  RH WIND       PRES   REMARKS
SPOKANE INTL   PTSUNNY   63  56  78 SW20G26   29.97R
SPOKANE DOWNTO PTSUNNY   67  56  67 SW21G32   29.98R
COEUR D ALENE  CLOUDY    68  57  68 W13G23    29.96R
SANDPOINT      LGT RAIN  63  61  94 S8        29.97R

...SOUTHEAST WASHINGTON AND SOUTHERN IDAHO PANHANDLE...

CITY           SKY/WX    TMP DP  RH WIND       PRES   REMARKS
WALLA WALLA    MOSUNNY   69  55  60 SW20G25   30.04R
PULLMAN/MOSCOW PTSUNNY   61  51  70 W7        30.03R
LEWISTON       MOSUNNY   68  50  52 NW16G33   29.94R
LOWELL           N/A     89  53  29 VRB7      29.80R

...COLUMBIA BASIN...

CITY           SKY/WX    TMP DP  RH WIND       PRES   REMARKS
EPHRATA        MOSUNNY   72  54  53 SW22      29.90R
MOSES LAKE     MOSUNNY   71  55  56 SW21G28   29.93R
TRI CITIES     MOSUNNY   75  53  46 SW18G32   29.98S
HERMISTON      MOSUNNY   72  50  45 W16G26    30.01S
PENDLETON      PTSUNNY   68  52  56 W18       30.02F

...EAST SLOPES CASCADES...

CITY           SKY/WX    TMP DP  RH WIND       PRES   REMARKS
THE DALLES     PTSUNNY   68  48  48 NW23G35   30.04F
YAKIMA         PTSUNNY   70  45  40 SW12      29.97F
ELLENSBURG     PTSUNNY   65  48  54 NW22      29.98S
WENATCHEE      PTSUNNY   69  49  48 W20       29.91R
OMAK           LGT RAIN  65  60  84 S13G24    29.85R

...SOUTHERN BRITISH COLUMBIA...

CITY           SKY/WX    TMP DP  RH WIND       PRES   REMARKS
PENTICTON      LGT RAIN  66  59  77 NE9       29.82F
CASTLEGAR      TSTM      68  63  83 NE6       29.77F
CRANBROOK      PTSUNNY   79  50  36 S5        29.83

...WESTERN MONTANA...

CITY           SKY/WX    TMP DP  RH WIND       PRES   REMARKS
MISSOULA       PTSUNNY   88  40  18 S21G39    29.84F

...NEIGHBORING CITIES...

CITY           SKY/WX    TMP DP  RH WIND       PRES   REMARKS
SEATTLE        PTSUNNY   61  57  87 S8        30.06S
CALGARY        PTSUNNY   77  52  41 SE12G18   29.92F



USA.gov is the U.S. government's official web portal to all federal, state and local government web resources and services.